DW1970 Weather Reports


Display with metric or nautical units.
time (UTC)temp
F
wind
direction
speed
MPH
gust
MPH
rain 1hr
in
rain 24hr
in
rain mn
in
humidity
%
barometer
mb
20260509074552 49 210 0.0 0.0 0.00 0.03 0.00 95 1015.9
20260509073051 49 208 0.0 0.0 0.00 0.03 0.00 94 1016.0
20260509071550 49 185 0.0 1.0 0.00 0.03 0.00 95 1016.0
20260509070047 49 329 0.0 0.0 0.00 0.03 0.00 94 1016.3
20260509064547 50 329 0.0 0.0 0.00 0.03 0.03 94 1016.3
20260509063047 50 329 0.0 1.0 0.00 0.03 0.03 94 1016.5
20260509061546 50 346 0.0 7.0 0.00 0.03 0.03 94 1016.6
20260509060045 50 339 0.0 8.0 0.00 0.03 0.03 94 1016.7
20260509054542 50 319 0.0 12.0 0.00 0.03 0.03 94 1016.9
20260509053106 50 10 0.0 5.0 0.00 0.03 0.03 94 1016.9
20260509051541 50 350 0.0 1.0 0.00 0.03 0.03 94 1016.8
20260509050040 50 354 0.0 7.0 0.00 0.03 0.03 94 1016.9
20260509044539 50 356 0.0 11.0 0.00 0.03 0.03 94 1016.8
20260509043051 51 8 0.0 0.0 0.00 0.03 0.03 93 1016.7
20260509041554 51 327 0.0 0.0 0.00 0.03 0.03 93 1016.4
20260509040038 51 339 0.0 0.0 0.00 0.03 0.03 93 1016.3
20260509034639 51 346 0.0 9.0 0.00 0.03 0.03 93 1016.2
20260509033037 51 307 0.0 3.0 0.00 0.03 0.03 93 1016.2
20260509031537 51 346 0.0 11.0 0.00 0.03 0.03 92 1016.2
20260509030036 52 344 1.0 16.0 0.00 0.03 0.03 91 1016.1
20260509024536 53 10 5.0 14.0 0.00 0.03 0.03 91 1016.0
20260509023036 53 353 6.0 17.0 0.00 0.03 0.03 90 1016.0
20260509021533 53 338 9.0 18.0 0.00 0.03 0.03 89 1016.1
20260509020030 54 2 11.0 19.0 0.00 0.03 0.03 88 1016.1
20260509014527 55 29 5.0 18.0 0.00 0.03 0.03 88 1016.2
20260509013026 55 352 11.0 19.0 0.00 0.03 0.03 87 1016.4
20260509011529 55 21 6.0 21.0 0.00 0.03 0.03 87 1016.3
20260509010038 56 1 7.0 21.0 0.00 0.03 0.03 87 1016.5
20260509004527 56 11 8.0 19.0 0.00 0.03 0.03 87 1016.5
20260509003023 56 7 9.0 21.0 0.00 0.03 0.03 86 1016.6
20260509001522 57 7 6.0 18.0 0.00 0.03 0.03 85 1016.7
20260509000021 56 343 9.0 22.0 0.00 0.03 0.03 87 1016.8
20260508234523 56 14 11.0 19.0 0.00 0.03 0.03 86 1016.9
20260508233018 57 15 11.0 19.0 0.00 0.03 0.03 86 1017.2
20260508231516 57 343 8.0 20.0 0.00 0.03 0.03 86 1017.2
20260508230032 57 354 12.0 19.0 0.00 0.03 0.03 86 1017.4
20260508224515 57 352 8.0 19.0 0.00 0.03 0.03 86 1017.4
20260508223012 58 349 6.0 17.0 0.00 0.03 0.03 86 1017.7
20260508221527 57 339 12.0 19.0 0.00 0.03 0.03 87 1018.2
20260508220010 58 10 5.0 17.0 0.00 0.03 0.03 87 1018.3
20260508214509 57 11 6.0 17.0 0.00 0.03 0.03 87 1018.4
20260508213016 57 339 5.0 17.0 0.00 0.03 0.03 87 1018.7
20260508211510 57 352 3.0 20.0 0.00 0.03 0.03 89 1018.8
20260508210006 57 2 7.0 18.0 0.00 0.03 0.03 87 1018.9
20260508204510 57 19 3.0 13.0 0.00 0.03 0.03 88 1018.9
20260508203004 56 2 7.0 18.0 0.00 0.03 0.03 88 1018.9
20260508201502 57 341 3.0 19.0 0.00 0.03 0.03 89 1018.9
20260508200002 56 330 4.0 18.0 0.00 0.03 0.03 87 1019.1
20260508194603 57 6 9.0 21.0 0.00 0.03 0.03 88 1019.1
20260508193115 56 341 4.0 19.0 0.00 0.03 0.03 89 1019.2
20260508191613 56 6 12.0 19.0 0.00 0.03 0.03 89 1019.3
20260508190059 56 3 10.0 19.0 0.00 0.03 0.03 88 1019.5
20260508184557 56 13 5.0 17.0 0.01 0.04 0.03 89 1019.6
20260508183055 56 5 4.0 14.0 0.01 0.04 0.03 89 1019.7
20260508181554 56 341 0.0 7.0 0.01 0.04 0.03 90 1019.6
20260508180051 56 354 0.0 8.0 0.01 0.04 0.03 92 1019.5
20260508174549 54 285 0.0 3.0 0.01 0.03 0.02 93 1019.5
20260508173045 53 9 0.0 0.0 0.01 0.03 0.02 94 1019.6
20260508171551 53 335 0.0 1.0 0.01 0.03 0.02 94 1019.6
20260508170049 53 13 0.0 4.0 0.02 0.03 0.02 94 1019.5
20260508164540 52 303 0.0 0.0 0.01 0.03 0.01 94 1019.4
20260508163040 53 312 0.0 0.0 0.01 0.03 0.01 96 1019.3
20260508161537 52 320 0.0 0.0 0.01 0.03 0.01 96 1019.2
20260508160037 51 302 0.0 0.0 0.00 0.02 0.00 96 1019.2
20260508154536 51 308 0.0 0.0 0.00 0.02 0.00 95 1019.3
20260508153034 51 290 0.0 0.0 0.00 0.02 0.00 96 1019.1
20260508151533 51 197 0.0 0.0 0.00 0.02 0.00 96 1018.9
20260508150038 51 169 0.0 0.0 0.00 0.02 0.00 96 1018.8
20260508144528 50 156 0.0 0.0 0.00 0.02 0.00 96 1018.6
20260508143028 50 350 0.0 0.0 0.00 0.02 0.00 96 1018.7
20260508141528 50 90 0.0 0.0 0.00 0.02 0.00 96 1018.6
20260508140025 50 90 0.0 0.0 0.00 0.02 0.00 96 1018.5
20260508134524 50 121 0.0 0.0 0.00 0.02 0.00 96 1018.5
20260508133027 50 122 0.0 0.0 0.00 0.02 0.00 96 1018.4
20260508131524 50 124 0.0 0.0 0.00 0.02 0.00 96 1018.2
20260508130023 50 123 0.0 0.0 0.00 0.02 0.00 96 1018.3
20260508124523 50 123 0.0 0.0 0.00 0.02 0.00 96 1018.3
20260508123022 50 123 0.0 0.0 0.00 0.02 0.00 96 1018.3
20260508121522 50 123 0.0 0.0 0.00 0.02 0.00 95 1018.3
20260508120022 50 133 0.0 0.0 0.00 0.02 0.00 96 1018.2
20260508114520 50 76 0.0 0.0 0.00 0.02 0.00 96 1018.1
20260508113021 50 76 0.0 0.0 0.00 0.02 0.00 96 1018.1
20260508111522 50 348 0.0 0.0 0.00 0.02 0.00 96 1018.2
20260508110019 50 348 0.0 0.0 0.00 0.02 0.00 96 1018.1
20260508104530 50 356 0.0 0.0 0.00 0.02 0.00 96 1018.0
20260508103023 50 2 0.0 1.0 0.00 0.02 0.00 96 1018.1
20260508101517 51 331 0.0 0.0 0.00 0.02 0.00 96 1018.1
20260508100017 50 322 0.0 0.0 0.00 0.02 0.00 96 1018.1
20260508094515 51 339 0.0 0.0 0.00 0.02 0.00 96 1018.2
20260508093014 51 339 0.0 0.0 0.00 0.02 0.00 96 1018.3
20260508091516 51 104 0.0 0.0 0.00 0.02 0.00 96 1018.4
20260508090017 50 104 0.0 0.0 0.00 0.02 0.00 96 1018.3
20260508084512 50 104 0.0 0.0 0.00 0.02 0.00 96 1018.2
20260508083011 50 104 0.0 0.0 0.00 0.02 0.00 96 1018.1
20260508081511 50 103 0.0 0.0 0.00 0.02 0.00 96 1018.3
20260508080010 50 104 0.0 0.0 0.00 0.02 0.00 95 1018.1